Location: Unspecified
(0.0000°N, 0.0000°E)
Time: 22:24:35
(UTC+02:00)

NOSS 3-3 (A) - Visible Passes

Search period start: 18 August 2017 00:00
Search period end: 28 August 2017 00:00
Orbit: 908 x 1305 km, 63.4° (Epoch: 18 July)

Date Brightness Start Highest point End Pass type
(mag) Time Alt. Az. Time Alt. Az. Time Alt. Az.
18 Aug 4.0 06:02:02 62° SSE 06:02:47 69° ESE 06:08:45 10° NNE visible
19 Aug 5.5 05:19:43 29° E 05:19:43 29° E 05:23:29 10° NE visible
19 Aug 5.2 07:07:14 17° W 07:08:43 19° WNW 07:12:50 10° NNW visible
20 Aug 4.5 06:24:50 37° NW 06:24:50 37° NW 06:29:37 10° N visible
21 Aug 5.1 05:42:21 32° NNE 05:42:21 32° NNE 05:45:29 10° NNE visible
22 Aug 6.3 04:59:49 14° NE 04:59:49 14° NE 05:00:40 10° NE visible
22 Aug 5.9 06:47:18 10° NW 06:47:18 10° NW 06:47:25 10° NW visible
23 Aug 5.9 06:04:41 14° NNW 06:04:41 14° NNW 06:05:36 10° NNW visible
